Year,Month,Day,Hour,Minute,Value (Times are PST for windgust in km/hr)
2016,10,16,00,00,1.60
2016,10,16,00,01,1.60
2016,10,16,00,02,3.20
2016,10,16,00,03,6.40
2016,10,16,00,04,9.60
2016,10,16,00,05,6.40
2016,10,16,00,06,4.80
2016,10,16,00,07,6.40
2016,10,16,00,08,19.30
2016,10,16,00,09,17.70
2016,10,16,00,10,8.10
2016,10,16,00,11,4.80
2016,10,16,00,12,1.60
2016,10,16,00,13,1.60
2016,10,16,00,14,11.30
2016,10,16,00,15,14.50
2016,10,16,00,16,11.30
2016,10,16,00,17,9.60
2016,10,16,00,18,8.10
2016,10,16,00,19,16.10
2016,10,16,00,20,16.10
2016,10,16,00,21,19.30
2016,10,16,00,22,19.30
2016,10,16,00,23,8.10
2016,10,16,00,24,6.40
2016,10,16,00,25,4.80
2016,10,16,00,26,8.10
2016,10,16,00,27,14.50
2016,10,16,00,28,14.50
2016,10,16,00,29,6.40
2016,10,16,00,30,17.70
2016,10,16,00,31,20.90
2016,10,16,00,32,8.10
2016,10,16,00,33,14.50
2016,10,16,00,34,6.40
2016,10,16,00,35,4.80
2016,10,16,00,36,3.20
2016,10,16,00,37,17.70
2016,10,16,00,38,11.30
2016,10,16,00,39,6.40
2016,10,16,00,40,11.30
2016,10,16,00,41,9.60
2016,10,16,00,42,9.60
2016,10,16,00,43,9.60
2016,10,16,00,44,20.90
2016,10,16,00,45,17.70
2016,10,16,00,46,17.70
2016,10,16,00,47,16.10
2016,10,16,00,48,14.50
2016,10,16,00,49,6.40
2016,10,16,00,50,11.30
2016,10,16,00,51,8.10
2016,10,16,00,52,9.60
2016,10,16,00,53,8.10
2016,10,16,00,54,6.40
2016,10,16,00,55,4.80
2016,10,16,00,56,16.10
2016,10,16,00,57,14.50
2016,10,16,00,58,19.30
2016,10,16,00,59,11.30
2016,10,16,01,00,16.10
2016,10,16,01,01,11.30
2016,10,16,01,02,16.10
2016,10,16,01,03,8.10
2016,10,16,01,04,8.10
2016,10,16,01,05,4.80
2016,10,16,01,06,3.20
2016,10,16,01,07,4.80
2016,10,16,01,08,8.10
2016,10,16,01,09,1.60
2016,10,16,01,10,1.60
2016,10,16,01,11,1.60
2016,10,16,01,12,4.80
2016,10,16,01,13,14.50
2016,10,16,01,14,14.50
2016,10,16,01,15,3.20
2016,10,16,01,16,4.80
2016,10,16,01,17,8.10
2016,10,16,01,18,16.10
2016,10,16,01,19,8.10
2016,10,16,01,20,1.60
2016,10,16,01,21,1.60
2016,10,16,01,23,1.60
2016,10,16,01,24,1.60
2016,10,16,01,25,3.20
2016,10,16,01,26,4.80
2016,10,16,01,27,1.60
2016,10,16,01,28,1.60
2016,10,16,01,29,1.60
2016,10,16,01,30,4.80
2016,10,16,01,31,11.30
2016,10,16,01,32,4.80
2016,10,16,01,33,4.80
2016,10,16,01,34,8.10
2016,10,16,01,35,6.40
2016,10,16,01,37,3.20
2016,10,16,01,39,3.20
2016,10,16,01,40,3.20
2016,10,16,01,41,1.60
2016,10,16,01,42,1.60
2016,10,16,01,44,1.60
2016,10,16,01,45,11.30
2016,10,16,01,46,3.20
2016,10,16,01,48,3.20
2016,10,16,01,49,1.60
2016,10,16,01,51,4.80
2016,10,16,01,52,3.20
2016,10,16,01,53,1.60
2016,10,16,01,55,1.60
2016,10,16,01,56,3.20
2016,10,16,01,57,3.20
2016,10,16,01,58,4.80
2016,10,16,01,59,1.60
2016,10,16,02,00,3.20
2016,10,16,02,01,1.60
2016,10,16,02,02,1.60
2016,10,16,02,04,1.60
2016,10,16,02,10,1.60
2016,10,16,02,11,1.60
2016,10,16,02,12,1.60
2016,10,16,02,13,1.60
2016,10,16,02,17,3.20
2016,10,16,02,18,1.60
2016,10,16,02,20,1.60
2016,10,16,02,21,1.60
2016,10,16,02,22,4.80
2016,10,16,02,23,4.80
2016,10,16,02,24,3.20
2016,10,16,02,25,1.60
2016,10,16,02,29,1.60
2016,10,16,02,31,1.60
2016,10,16,02,32,1.60
2016,10,16,02,34,1.60
2016,10,16,02,42,1.60
2016,10,16,02,43,1.60
2016,10,16,02,44,3.20
2016,10,16,02,45,1.60
2016,10,16,02,51,1.60
2016,10,16,02,52,1.60
2016,10,16,02,53,1.60
2016,10,16,02,54,1.60
2016,10,16,03,04,1.60
2016,10,16,03,05,1.60
2016,10,16,03,06,3.20
2016,10,16,03,07,6.40
2016,10,16,03,08,6.40
2016,10,16,03,09,6.40
2016,10,16,03,10,4.80
2016,10,16,03,11,6.40
2016,10,16,03,12,3.20
2016,10,16,03,13,3.20
2016,10,16,03,14,8.10
2016,10,16,03,15,6.40
2016,10,16,03,16,4.80
2016,10,16,03,17,6.40
2016,10,16,03,18,8.10
2016,10,16,03,19,4.80
2016,10,16,03,20,6.40
2016,10,16,03,21,4.80
2016,10,16,03,22,3.20
2016,10,16,03,23,6.40
2016,10,16,03,24,3.20
2016,10,16,03,25,4.80
2016,10,16,03,26,4.80
2016,10,16,03,27,1.60
2016,10,16,03,29,1.60
2016,10,16,03,30,3.20
2016,10,16,03,31,6.40
2016,10,16,03,32,9.60
2016,10,16,03,33,6.40
2016,10,16,03,34,8.10
2016,10,16,03,35,8.10
2016,10,16,03,36,6.40
2016,10,16,03,37,8.10
2016,10,16,03,38,6.40
2016,10,16,03,39,3.20
2016,10,16,03,40,3.20
2016,10,16,03,41,3.20
2016,10,16,03,42,3.20
2016,10,16,03,43,1.60
2016,10,16,03,44,3.20
2016,10,16,03,45,4.80
2016,10,16,03,46,4.80
2016,10,16,03,47,4.80
2016,10,16,03,48,3.20
2016,10,16,03,49,8.10
2016,10,16,03,50,8.10
2016,10,16,03,51,4.80
2016,10,16,03,52,6.40
2016,10,16,03,53,6.40
2016,10,16,03,54,8.10
2016,10,16,03,55,6.40
2016,10,16,03,56,6.40
2016,10,16,03,57,4.80
2016,10,16,03,58,3.20
2016,10,16,03,59,4.80
2016,10,16,04,00,3.20
2016,10,16,04,01,3.20
2016,10,16,04,02,1.60
2016,10,16,04,03,3.20
2016,10,16,04,04,3.20
2016,10,16,04,05,3.20
2016,10,16,04,06,3.20
2016,10,16,04,07,1.60
2016,10,16,04,09,3.20
2016,10,16,04,10,1.60
2016,10,16,04,11,1.60
2016,10,16,04,21,1.60
2016,10,16,04,30,1.60
2016,10,16,04,31,1.60
2016,10,16,04,32,1.60
2016,10,16,04,33,3.20
2016,10,16,04,34,3.20
2016,10,16,04,35,1.60
2016,10,16,04,36,1.60
2016,10,16,04,37,1.60
2016,10,16,04,38,3.20
2016,10,16,04,39,1.60
2016,10,16,04,40,1.60
2016,10,16,04,41,1.60
2016,10,16,04,50,1.60
2016,10,16,04,51,3.20
2016,10,16,04,52,1.60
2016,10,16,04,53,1.60
2016,10,16,04,54,3.20
2016,10,16,04,55,1.60
2016,10,16,04,56,1.60
2016,10,16,04,57,1.60
2016,10,16,04,58,3.20
2016,10,16,04,59,1.60
2016,10,16,05,01,1.60
2016,10,16,05,02,1.60
2016,10,16,05,03,1.60
2016,10,16,05,04,1.60
2016,10,16,05,07,1.60
2016,10,16,05,08,1.60
2016,10,16,05,10,1.60
2016,10,16,05,11,1.60
2016,10,16,05,14,3.20
2016,10,16,05,16,1.60
2016,10,16,05,17,1.60
2016,10,16,05,18,1.60
2016,10,16,05,19,1.60
2016,10,16,05,20,1.60
2016,10,16,05,21,1.60
2016,10,16,05,23,1.60
2016,10,16,05,27,4.80
2016,10,16,05,28,4.80
2016,10,16,05,29,4.80
2016,10,16,05,30,1.60
2016,10,16,05,31,8.10
2016,10,16,05,32,8.10
2016,10,16,05,33,6.40
2016,10,16,05,34,6.40
2016,10,16,05,35,4.80
2016,10,16,05,36,4.80
2016,10,16,05,37,6.40
2016,10,16,05,38,9.60
2016,10,16,05,39,11.30
2016,10,16,05,40,9.60
2016,10,16,05,41,9.60
2016,10,16,05,42,6.40
2016,10,16,05,43,6.40
2016,10,16,05,44,4.80
2016,10,16,05,45,4.80
2016,10,16,05,46,3.20
2016,10,16,05,47,4.80
2016,10,16,05,48,1.60
2016,10,16,05,49,1.60
2016,10,16,06,01,1.60
2016,10,16,06,02,1.60
2016,10,16,06,20,1.60
2016,10,16,06,21,1.60
2016,10,16,06,22,1.60
2016,10,16,06,23,1.60
2016,10,16,06,35,1.60
2016,10,16,06,36,3.20
2016,10,16,06,37,4.80
2016,10,16,06,38,3.20
2016,10,16,06,39,1.60
2016,10,16,06,41,1.60
2016,10,16,06,55,1.60
2016,10,16,06,56,1.60
2016,10,16,07,10,1.60
2016,10,16,07,22,1.60
2016,10,16,07,23,1.60
2016,10,16,07,24,1.60
2016,10,16,07,25,1.60
2016,10,16,07,26,3.20
2016,10,16,07,27,1.60
2016,10,16,07,28,3.20
2016,10,16,07,29,3.20
2016,10,16,07,30,1.60
2016,10,16,07,31,3.20
2016,10,16,07,32,3.20
2016,10,16,07,33,6.40
2016,10,16,07,34,6.40
2016,10,16,07,35,3.20
2016,10,16,07,36,1.60
2016,10,16,07,39,1.60
2016,10,16,07,40,1.60
2016,10,16,07,48,1.60
2016,10,16,07,49,1.60
2016,10,16,07,50,1.60
2016,10,16,07,51,4.80
2016,10,16,07,52,4.80
2016,10,16,07,53,4.80
2016,10,16,07,54,3.20
2016,10,16,07,55,1.60
2016,10,16,07,56,1.60
2016,10,16,07,59,1.60
2016,10,16,08,00,1.60
2016,10,16,08,05,1.60
2016,10,16,08,14,1.60
2016,10,16,08,15,1.60
2016,10,16,08,16,1.60
2016,10,16,08,17,1.60
2016,10,16,08,18,3.20
2016,10,16,08,19,1.60
2016,10,16,08,20,1.60
2016,10,16,08,21,1.60
2016,10,16,08,22,1.60
2016,10,16,08,23,1.60
2016,10,16,08,24,1.60
2016,10,16,08,32,1.60
2016,10,16,08,35,1.60
2016,10,16,08,36,1.60
2016,10,16,08,39,3.20
2016,10,16,08,40,1.60
2016,10,16,08,41,1.60
2016,10,16,08,46,1.60
2016,10,16,08,47,1.60
2016,10,16,08,48,1.60
2016,10,16,08,49,1.60
2016,10,16,08,50,1.60
2016,10,16,08,51,3.20
2016,10,16,08,52,3.20
2016,10,16,08,53,4.80
2016,10,16,08,54,1.60
2016,10,16,08,55,1.60
2016,10,16,08,56,1.60
2016,10,16,08,57,1.60
2016,10,16,08,58,1.60
2016,10,16,09,00,1.60
2016,10,16,09,01,4.80
2016,10,16,09,02,4.80
2016,10,16,09,03,4.80
2016,10,16,09,04,1.60
2016,10,16,09,05,3.20
2016,10,16,09,06,1.60
2016,10,16,09,07,4.80
2016,10,16,09,08,3.20
2016,10,16,09,09,1.60
2016,10,16,09,10,1.60
2016,10,16,09,11,1.60
2016,10,16,09,12,3.20
2016,10,16,09,13,1.60
2016,10,16,09,14,3.20
2016,10,16,09,15,4.80
2016,10,16,09,16,6.40
2016,10,16,09,17,4.80
2016,10,16,09,18,3.20
2016,10,16,09,19,4.80
2016,10,16,09,20,3.20
2016,10,16,09,21,3.20
2016,10,16,09,22,3.20
2016,10,16,09,23,1.60
2016,10,16,09,24,4.80
2016,10,16,09,25,4.80
2016,10,16,09,26,9.60
2016,10,16,09,27,4.80
2016,10,16,09,28,9.60
2016,10,16,09,29,6.40
2016,10,16,09,30,6.40
2016,10,16,09,31,8.10
2016,10,16,09,32,4.80
2016,10,16,09,33,3.20
2016,10,16,09,34,3.20
2016,10,16,09,35,1.60
2016,10,16,09,40,1.60
2016,10,16,09,41,4.80
2016,10,16,09,42,1.60
2016,10,16,09,44,4.80
2016,10,16,09,45,4.80
2016,10,16,09,46,1.60
2016,10,16,09,51,1.60
2016,10,16,09,52,1.60
2016,10,16,09,53,1.60
2016,10,16,09,54,1.60
2016,10,16,09,57,3.20
2016,10,16,09,58,3.20
2016,10,16,09,59,1.60
2016,10,16,10,03,6.40
2016,10,16,10,04,4.80
2016,10,16,10,05,3.20
2016,10,16,10,06,1.60
2016,10,16,10,07,3.20
2016,10,16,10,08,1.60
2016,10,16,10,09,1.60
2016,10,16,10,10,1.60
2016,10,16,10,11,3.20
2016,10,16,10,12,1.60
2016,10,16,10,14,3.20
2016,10,16,10,15,3.20
2016,10,16,10,16,1.60
2016,10,16,10,18,1.60
2016,10,16,10,21,4.80
2016,10,16,10,22,4.80
2016,10,16,10,23,4.80
2016,10,16,10,24,4.80
2016,10,16,10,25,3.20
2016,10,16,10,26,3.20
2016,10,16,10,27,1.60
2016,10,16,10,28,1.60
2016,10,16,10,33,3.20
2016,10,16,10,34,1.60
2016,10,16,10,35,1.60
2016,10,16,10,36,1.60
2016,10,16,10,37,1.60
2016,10,16,10,38,3.20
2016,10,16,10,39,3.20
2016,10,16,10,40,4.80
2016,10,16,10,41,1.60
2016,10,16,10,42,1.60
2016,10,16,10,43,1.60
2016,10,16,10,44,1.60
2016,10,16,10,50,3.20
2016,10,16,10,51,1.60
2016,10,16,10,52,1.60
2016,10,16,10,55,3.20
2016,10,16,10,56,3.20
2016,10,16,10,57,3.20
2016,10,16,10,58,3.20
2016,10,16,10,59,3.20
2016,10,16,11,00,1.60
2016,10,16,11,01,1.60
2016,10,16,11,05,1.60
2016,10,16,11,06,1.60
2016,10,16,11,07,4.80
2016,10,16,11,08,3.20
2016,10,16,11,09,1.60
2016,10,16,11,10,1.60
2016,10,16,11,11,3.20
2016,10,16,11,12,1.60
2016,10,16,11,13,1.60
2016,10,16,11,14,3.20
2016,10,16,11,17,1.60
2016,10,16,11,19,1.60
2016,10,16,11,20,1.60
2016,10,16,11,21,3.20
2016,10,16,11,22,1.60
2016,10,16,11,23,1.60
2016,10,16,11,24,1.60
2016,10,16,11,26,1.60
2016,10,16,11,27,4.80
2016,10,16,11,28,6.40
2016,10,16,11,29,11.30
2016,10,16,11,30,16.10
2016,10,16,11,31,6.40
2016,10,16,11,32,16.10
2016,10,16,11,33,4.80
2016,10,16,11,34,9.60
2016,10,16,11,35,4.80
2016,10,16,11,36,1.60
2016,10,16,11,37,4.80
2016,10,16,11,38,4.80
2016,10,16,11,39,9.60
2016,10,16,11,40,11.30
2016,10,16,11,41,8.10
2016,10,16,11,42,8.10
2016,10,16,11,43,8.10
2016,10,16,11,44,6.40
2016,10,16,11,45,9.60
2016,10,16,11,46,8.10
2016,10,16,11,47,8.10
2016,10,16,11,48,8.10
2016,10,16,11,49,9.60
2016,10,16,11,50,9.60
2016,10,16,11,51,3.20
2016,10,16,11,52,1.60
2016,10,16,11,53,4.80
2016,10,16,11,54,1.60
2016,10,16,11,55,4.80
2016,10,16,11,56,6.40
2016,10,16,11,57,4.80
2016,10,16,11,58,3.20
2016,10,16,11,59,1.60
2016,10,16,12,01,1.60
2016,10,16,12,02,1.60
2016,10,16,12,03,4.80
2016,10,16,12,04,3.20
2016,10,16,12,05,4.80
2016,10,16,12,06,1.60
2016,10,16,12,07,1.60
2016,10,16,12,08,3.20
2016,10,16,12,09,3.20
2016,10,16,12,10,4.80
2016,10,16,12,11,6.40
2016,10,16,12,12,9.60
2016,10,16,12,13,3.20
2016,10,16,12,14,1.60
2016,10,16,12,15,4.80
2016,10,16,12,16,1.60
2016,10,16,12,17,1.60
2016,10,16,12,18,1.60
2016,10,16,12,19,1.60
2016,10,16,12,20,1.60
2016,10,16,12,21,1.60
2016,10,16,12,25,1.60
2016,10,16,12,27,3.20
2016,10,16,12,28,6.40
2016,10,16,12,29,6.40
2016,10,16,12,30,4.80
2016,10,16,12,31,3.20
2016,10,16,12,36,3.20
2016,10,16,12,38,1.60
2016,10,16,12,39,1.60
2016,10,16,12,40,1.60
2016,10,16,12,43,1.60
2016,10,16,12,44,6.40
2016,10,16,12,45,3.20
2016,10,16,12,46,4.80
2016,10,16,12,47,3.20
2016,10,16,12,48,3.20
2016,10,16,12,49,3.20
2016,10,16,12,50,8.10
2016,10,16,12,51,4.80
2016,10,16,12,52,4.80
2016,10,16,12,53,4.80
2016,10,16,12,54,4.80
2016,10,16,12,55,14.50
2016,10,16,12,56,9.60
2016,10,16,12,57,8.10
2016,10,16,12,58,8.10
2016,10,16,12,59,8.10
2016,10,16,13,00,6.40
2016,10,16,13,01,4.80
2016,10,16,13,02,4.80
2016,10,16,13,03,1.60
2016,10,16,13,04,3.20
2016,10,16,13,05,3.20
2016,10,16,13,06,3.20
2016,10,16,13,07,6.40
2016,10,16,13,08,1.60
2016,10,16,13,09,1.60
2016,10,16,13,10,1.60
2016,10,16,13,11,1.60
2016,10,16,13,12,1.60
2016,10,16,13,13,1.60
2016,10,16,13,14,1.60
2016,10,16,13,15,3.20
2016,10,16,13,16,4.80
2016,10,16,13,17,4.80
2016,10,16,13,18,4.80
2016,10,16,13,19,3.20
2016,10,16,13,20,4.80
2016,10,16,13,21,3.20
2016,10,16,13,22,3.20
2016,10,16,13,23,3.20
2016,10,16,13,24,8.10
2016,10,16,13,25,6.40
2016,10,16,13,26,4.80
2016,10,16,13,27,3.20
2016,10,16,13,28,3.20
2016,10,16,13,29,3.20
2016,10,16,13,30,4.80
2016,10,16,13,31,6.40
2016,10,16,13,32,4.80
2016,10,16,13,33,3.20
2016,10,16,13,34,3.20
2016,10,16,13,35,3.20
2016,10,16,13,36,6.40
2016,10,16,13,37,3.20
2016,10,16,13,38,1.60
2016,10,16,13,39,4.80
2016,10,16,13,40,3.20
2016,10,16,13,41,4.80
2016,10,16,13,42,1.60
2016,10,16,13,43,3.20
2016,10,16,13,44,1.60
2016,10,16,13,45,1.60
2016,10,16,13,46,3.20
2016,10,16,13,47,3.20
2016,10,16,13,48,3.20
2016,10,16,13,49,1.60
2016,10,16,13,50,1.60
2016,10,16,13,51,3.20
2016,10,16,13,52,1.60
2016,10,16,13,53,1.60
2016,10,16,13,54,1.60
2016,10,16,13,55,1.60
2016,10,16,13,56,1.60
2016,10,16,13,58,1.60
2016,10,16,13,59,1.60
2016,10,16,14,00,4.80
2016,10,16,14,01,3.20
2016,10,16,14,02,3.20
2016,10,16,14,04,3.20
2016,10,16,14,05,1.60
2016,10,16,14,06,1.60
2016,10,16,14,09,1.60
2016,10,16,14,10,1.60
2016,10,16,14,11,1.60
2016,10,16,14,12,1.60
2016,10,16,14,16,1.60
2016,10,16,14,17,3.20
2016,10,16,14,18,3.20
2016,10,16,14,19,1.60
2016,10,16,14,22,1.60
2016,10,16,14,23,1.60
2016,10,16,14,24,1.60
2016,10,16,14,26,1.60
2016,10,16,14,28,1.60
2016,10,16,14,29,4.80
2016,10,16,14,30,3.20
2016,10,16,14,33,3.20
2016,10,16,14,34,4.80
2016,10,16,14,35,6.40
2016,10,16,14,36,4.80
2016,10,16,14,37,6.40
2016,10,16,14,38,14.50
2016,10,16,14,39,9.60
2016,10,16,14,40,8.10
2016,10,16,14,41,8.10
2016,10,16,14,42,8.10
2016,10,16,14,43,4.80
2016,10,16,14,44,6.40
2016,10,16,14,45,6.40
2016,10,16,14,46,3.20
2016,10,16,14,47,3.20
2016,10,16,14,48,3.20
2016,10,16,14,49,6.40
2016,10,16,14,50,3.20
2016,10,16,14,51,4.80
2016,10,16,14,52,1.60
2016,10,16,14,53,4.80
2016,10,16,14,54,3.20
2016,10,16,14,55,3.20
2016,10,16,14,57,1.60
2016,10,16,14,58,1.60
2016,10,16,14,59,1.60
2016,10,16,15,01,1.60
2016,10,16,15,02,3.20
2016,10,16,15,03,1.60
2016,10,16,15,04,1.60
2016,10,16,15,05,4.80
2016,10,16,15,06,4.80
2016,10,16,15,07,3.20
2016,10,16,15,08,4.80
2016,10,16,15,09,3.20
2016,10,16,15,10,3.20
2016,10,16,15,11,1.60
2016,10,16,15,12,1.60
2016,10,16,15,15,1.60
2016,10,16,15,16,1.60
2016,10,16,15,17,1.60
2016,10,16,15,18,1.60
2016,10,16,15,19,1.60
2016,10,16,15,20,1.60
2016,10,16,15,23,1.60
2016,10,16,15,32,1.60
2016,10,16,15,33,1.60
2016,10,16,15,34,1.60
2016,10,16,15,35,3.20
2016,10,16,15,36,4.80
2016,10,16,15,37,3.20
2016,10,16,15,38,3.20
2016,10,16,15,39,1.60
2016,10,16,15,47,1.60
2016,10,16,15,48,4.80
2016,10,16,15,49,6.40
2016,10,16,15,50,6.40
2016,10,16,15,51,6.40
2016,10,16,15,52,6.40
2016,10,16,15,53,1.60
2016,10,16,15,54,4.80
2016,10,16,15,55,6.40
2016,10,16,15,56,6.40
2016,10,16,15,57,8.10
2016,10,16,15,58,3.20
2016,10,16,15,59,4.80
2016,10,16,16,00,3.20
2016,10,16,16,01,1.60
2016,10,16,16,02,1.60
2016,10,16,16,06,1.60
2016,10,16,16,07,1.60
2016,10,16,16,13,1.60
2016,10,16,16,32,1.60
2016,10,16,16,35,1.60
2016,10,16,16,36,1.60
2016,10,16,16,37,1.60
2016,10,16,16,38,1.60
2016,10,16,16,39,1.60
2016,10,16,16,40,1.60
2016,10,16,16,44,1.60
2016,10,16,16,45,1.60
2016,10,16,16,46,1.60
2016,10,16,16,47,1.60
2016,10,16,16,48,1.60
2016,10,16,17,06,1.60
2016,10,16,17,07,1.60
2016,10,16,17,08,3.20
2016,10,16,17,09,1.60
2016,10,16,17,10,1.60
2016,10,16,17,12,1.60
2016,10,16,17,13,1.60
2016,10,16,17,14,1.60
2016,10,16,17,15,1.60
2016,10,16,17,17,1.60
2016,10,16,17,18,3.20
2016,10,16,17,19,3.20
2016,10,16,17,20,3.20
2016,10,16,17,21,1.60
2016,10,16,17,27,1.60
2016,10,16,17,28,1.60
2016,10,16,17,29,3.20
2016,10,16,17,30,3.20
2016,10,16,17,31,1.60
2016,10,16,17,32,1.60
2016,10,16,17,35,1.60
2016,10,16,17,38,1.60
2016,10,16,17,49,1.60
2016,10,16,17,50,1.60
2016,10,16,17,51,1.60
2016,10,16,17,52,1.60
2016,10,16,17,53,3.20
2016,10,16,17,54,3.20
2016,10,16,17,55,3.20
2016,10,16,17,56,1.60
2016,10,16,17,57,6.40
2016,10,16,17,58,4.80
2016,10,16,17,59,4.80
2016,10,16,18,00,3.20
2016,10,16,18,01,3.20
2016,10,16,18,02,4.80
2016,10,16,18,03,1.60
2016,10,16,18,04,1.60
2016,10,16,18,05,1.60
2016,10,16,18,06,3.20
2016,10,16,18,07,4.80
2016,10,16,18,08,3.20
2016,10,16,18,09,4.80
2016,10,16,18,10,3.20
2016,10,16,18,11,3.20
2016,10,16,18,12,4.80
2016,10,16,18,13,6.40
2016,10,16,18,14,3.20
2016,10,16,18,15,3.20
2016,10,16,18,16,3.20
2016,10,16,18,17,3.20
2016,10,16,18,18,1.60
2016,10,16,18,20,1.60
2016,10,16,18,23,1.60
2016,10,16,18,24,3.20
2016,10,16,18,25,1.60
2016,10,16,18,26,1.60
2016,10,16,18,27,4.80
2016,10,16,18,28,3.20
2016,10,16,18,29,4.80
2016,10,16,18,30,4.80
2016,10,16,18,31,3.20
2016,10,16,18,32,3.20
2016,10,16,18,33,1.60
2016,10,16,18,34,1.60
2016,10,16,18,35,3.20
2016,10,16,18,36,1.60
2016,10,16,18,37,1.60
2016,10,16,18,38,1.60
2016,10,16,18,39,3.20
2016,10,16,18,40,1.60
2016,10,16,18,56,1.60
2016,10,16,19,01,1.60
2016,10,16,19,04,1.60
2016,10,16,19,05,1.60
2016,10,16,19,11,1.60
2016,10,16,19,12,3.20
2016,10,16,19,13,1.60
2016,10,16,19,14,1.60
2016,10,16,19,15,1.60
2016,10,16,19,16,3.20
2016,10,16,19,17,3.20
2016,10,16,19,18,3.20
2016,10,16,19,19,1.60
2016,10,16,19,20,3.20
2016,10,16,19,21,3.20
2016,10,16,19,22,3.20
2016,10,16,19,23,3.20
2016,10,16,19,24,1.60
2016,10,16,19,25,1.60
2016,10,16,19,26,1.60
2016,10,16,19,27,1.60
2016,10,16,19,28,3.20
2016,10,16,19,29,3.20
2016,10,16,19,30,3.20
2016,10,16,19,31,8.10
2016,10,16,19,32,3.20
2016,10,16,19,37,3.20
2016,10,16,19,38,1.60
2016,10,16,19,39,1.60
2016,10,16,19,40,1.60
2016,10,16,19,41,1.60
2016,10,16,19,42,4.80
2016,10,16,19,43,8.10
2016,10,16,19,44,8.10
2016,10,16,19,45,3.20
2016,10,16,19,46,3.20
2016,10,16,19,48,1.60
2016,10,16,19,49,1.60
2016,10,16,19,50,1.60
2016,10,16,19,51,3.20
2016,10,16,19,52,4.80
2016,10,16,19,53,1.60
2016,10,16,19,54,1.60
2016,10,16,19,55,1.60
2016,10,16,19,56,3.20
2016,10,16,19,57,1.60
2016,10,16,19,58,1.60
2016,10,16,19,59,4.80
2016,10,16,20,00,8.10
2016,10,16,20,01,8.10
2016,10,16,20,02,6.40
2016,10,16,20,03,8.10
2016,10,16,20,04,8.10
2016,10,16,20,05,8.10
2016,10,16,20,06,4.80
2016,10,16,20,07,6.40
2016,10,16,20,08,6.40
2016,10,16,20,09,4.80
2016,10,16,20,10,9.60
2016,10,16,20,11,6.40
2016,10,16,20,12,3.20
2016,10,16,20,13,3.20
2016,10,16,20,14,3.20
2016,10,16,20,15,3.20
2016,10,16,20,16,1.60
2016,10,16,20,17,4.80
2016,10,16,20,18,4.80
2016,10,16,20,19,3.20
2016,10,16,20,20,1.60
2016,10,16,20,21,1.60
2016,10,16,20,22,1.60
2016,10,16,20,23,1.60
2016,10,16,20,24,1.60
2016,10,16,20,25,1.60
2016,10,16,20,26,3.20
2016,10,16,20,27,1.60
2016,10,16,20,28,4.80
2016,10,16,20,29,8.10
2016,10,16,20,30,6.40
2016,10,16,20,31,3.20
2016,10,16,20,32,1.60
2016,10,16,20,38,1.60
2016,10,16,20,39,1.60
2016,10,16,20,40,3.20
2016,10,16,20,41,1.60
2016,10,16,20,42,4.80
2016,10,16,20,43,3.20
2016,10,16,20,44,3.20
2016,10,16,20,45,3.20
2016,10,16,20,46,1.60
2016,10,16,20,49,3.20
2016,10,16,20,55,1.60
2016,10,16,20,56,3.20
2016,10,16,20,57,3.20
2016,10,16,20,58,3.20
2016,10,16,20,59,3.20
2016,10,16,21,00,3.20
2016,10,16,21,01,1.60
2016,10,16,21,02,1.60
2016,10,16,21,03,1.60
2016,10,16,21,04,3.20
2016,10,16,21,05,3.20
2016,10,16,21,08,8.10
2016,10,16,21,09,1.60
2016,10,16,21,10,3.20
2016,10,16,21,11,4.80
2016,10,16,21,12,3.20
2016,10,16,21,13,3.20
2016,10,16,21,14,3.20
2016,10,16,21,15,1.60
2016,10,16,21,16,4.80
2016,10,16,21,17,3.20
2016,10,16,21,18,3.20
2016,10,16,21,19,4.80
2016,10,16,21,20,3.20
2016,10,16,21,22,3.20
2016,10,16,21,23,4.80
2016,10,16,21,24,4.80
2016,10,16,21,25,3.20
2016,10,16,21,26,1.60
2016,10,16,21,27,4.80
2016,10,16,21,28,4.80
2016,10,16,21,29,4.80
2016,10,16,21,30,6.40
2016,10,16,21,31,3.20
2016,10,16,21,32,1.60
2016,10,16,21,33,1.60
2016,10,16,21,34,1.60
2016,10,16,21,35,1.60
2016,10,16,21,37,1.60
2016,10,16,21,38,1.60
2016,10,16,21,39,3.20
2016,10,16,21,54,1.60
2016,10,16,21,55,1.60
2016,10,16,21,57,1.60
2016,10,16,21,58,3.20
2016,10,16,21,59,3.20
2016,10,16,22,00,4.80
2016,10,16,22,01,4.80
2016,10,16,22,02,8.10
2016,10,16,22,03,4.80
2016,10,16,22,04,3.20
2016,10,16,22,05,1.60
2016,10,16,22,06,4.80
2016,10,16,22,07,3.20
2016,10,16,22,08,3.20
2016,10,16,22,09,3.20
2016,10,16,22,10,3.20
2016,10,16,22,11,3.20
2016,10,16,22,12,4.80
2016,10,16,22,13,3.20
2016,10,16,22,14,3.20
2016,10,16,22,15,6.40
2016,10,16,22,16,1.60
2016,10,16,22,17,3.20
2016,10,16,22,18,1.60
2016,10,16,22,19,1.60
2016,10,16,22,22,4.80
2016,10,16,22,23,1.60
2016,10,16,22,24,1.60
2016,10,16,22,25,3.20
2016,10,16,22,26,1.60
2016,10,16,22,27,1.60
2016,10,16,22,28,6.40
2016,10,16,22,29,6.40
2016,10,16,22,30,9.60
2016,10,16,22,31,9.60
2016,10,16,22,32,3.20
2016,10,16,22,33,4.80
2016,10,16,22,34,8.10
2016,10,16,22,35,6.40
2016,10,16,22,36,4.80
2016,10,16,22,37,4.80
2016,10,16,22,38,6.40
2016,10,16,22,39,4.80
2016,10,16,22,40,4.80
2016,10,16,22,41,4.80
2016,10,16,22,42,3.20
2016,10,16,22,43,1.60
2016,10,16,22,44,4.80
2016,10,16,22,45,4.80
2016,10,16,22,46,3.20
2016,10,16,22,47,4.80
2016,10,16,22,48,4.80
2016,10,16,22,49,4.80
2016,10,16,22,50,4.80
2016,10,16,22,51,3.20
2016,10,16,22,52,4.80
2016,10,16,22,53,3.20
2016,10,16,22,54,3.20
2016,10,16,22,55,4.80
2016,10,16,22,56,4.80
2016,10,16,22,57,3.20
2016,10,16,22,58,3.20
2016,10,16,22,59,1.60
2016,10,16,23,03,1.60
2016,10,16,23,04,1.60
2016,10,16,23,05,1.60
2016,10,16,23,06,1.60
2016,10,16,23,07,1.60
2016,10,16,23,08,3.20
2016,10,16,23,09,3.20
2016,10,16,23,10,3.20
2016,10,16,23,11,1.60
2016,10,16,23,12,3.20
2016,10,16,23,13,3.20
2016,10,16,23,14,1.60
2016,10,16,23,15,1.60
2016,10,16,23,16,1.60
2016,10,16,23,17,1.60
2016,10,16,23,18,1.60
2016,10,16,23,19,1.60
2016,10,16,23,20,1.60
2016,10,16,23,21,1.60
2016,10,16,23,27,1.60
2016,10,16,23,28,1.60
2016,10,16,23,37,1.60
2016,10,16,23,38,1.60
2016,10,16,23,40,1.60
2016,10,16,23,43,3.20
2016,10,16,23,44,4.80
2016,10,16,23,45,3.20
2016,10,16,23,46,1.60
2016,10,16,23,47,3.20
2016,10,16,23,56,1.60
2016,10,16,23,57,1.60
2016,10,16,23,58,1.60
